sat.trackr.live / text

‹ back to catalog

2024-174A

NORAD 61238 · 2024-174A

PAYLOAD ACTIVE UNKNOWN

§ Identity

Operator
Country
PRC
Launch date
2024-09-24
Launch site
JSC
Launch vehicle
Mass (kg)
RCS (m²)

External: N2YO · Heavens-Above · Gunter

§ Orbital elements

Epoch: 2026-09-22T20:26:28.787712Z

Period
94.72 min
Inclination
97.4496°
Eccentricity
0.0002830
Mean motion
15.20303848 rev/d
Perigee alt
503.0 km
Apogee alt
506.9 km
Semi-major
6,883.1 km
B*
1.1729e-4
RAAN
272.3359°
Arg perigee
19.2090°
Mean anomaly
340.9251°
Rev number
11,051

§ Raw data

2024-174A1 61238U 24174A   26265.85172208  .00002480  00000+0  11729-3 0  99982 61238  97.4496 272.3359 0002830  19.2090 340.9251 15.20303848110512

JSON: /api/v1/satellites/61238 · /tle

For live sub-satellite position, see the globe view (requires WebGL).

§ Visibility from observer

Set your observer location to see the next 7 days of passes ≥ 10°. The values pass through the URL so the page stays shareable.

No JS? Fill the form by hand. The geolocation button needs JavaScript.